Wilmington, DE

1:06 PM EDT on July 28, 2017 (GMT -0400)
New Castle County

Weather History for KILG - August, 2013

Change the Weather History Date:

Tuesday, August 27, 2013

  Actual Average Record
Temperature  
Mean Temperature 80 °F 74 °F  
Max Temperature 90 °F 83 °F 98 °F (1948)
Min Temperature 70 °F 65 °F 49 °F (1944)
Degree Days  
Heating Degree Days 0 0  
Month to date heating degree days 0 0  
Since 1 June heating degree days 0 15  
Since 1 July heating degree days 0 0  
Cooling Degree Days 15 9  
Month to date cooling degree days 222 282  
Year to date cooling degree days 1037 959  
Since 1 June cooling degree days 930 880  
Growing Degree Days 30 (Base 50)    
Moisture  
Dew Point 67 °F    
Average Humidity 69    
Maximum Humidity 87    
Minimum Humidity 50    
Precipitation  
Precipitation 0.06 in 0.09 in 5.38 in (2011)
Month to date precipitation 4.74 2.87  
Year to date precipitation 35.85 28.38  
Snow  
Snow 0.00 in 0.00 in T in (1895)
Month to date snowfall 0.0 0.0  
Since 1 June snowfall 0.0 0.0  
Since 1 July snowfall 0.0 0.0  
Snow Depth 0.00 in    
Sea Level Pressure  
Sea Level Pressure 29.92 in    
Wind  
Wind Speed 6 mph (WNW)    
Max Wind Speed 14 mph    
Max Gust Speed 20 mph    
Visibility 10 miles    
Events Rain    
T = Trace of Precipitation, MM = Missing Value Source: NWS Daily Summary

Daily Weather History Graph

Daily Weather History Graph

Search for Another Location

Airport or City:

Trip Planner

Search our weather history database for the weather conditions in past years. The results will help you decide how hot, cold, wet, or windy it might be!

Date:

Astronomy

Aug. 27, 2013 Rise Set
Actual Time 6:26 AM EDT 7:40 PM EDT
Civil Twilight 5:58 AM EDT 8:08 PM EDT
Nautical Twilight 5:24 AM EDT 8:42 PM EDT
Astronomical Twilight 4:49 AM EDT 9:17 PM EDT
Moon 11:33 PM EDT (8/27) 1:20 PM EDT (8/27)
Length of Visible Light 14h 10m
Length of Day
13h 14m
Waning Gibbous, 57% of the Moon is Illuminated
Aug 27
Waning Gibbous
Aug 28
Last Quarter
Sep 5
New
Sep 12
First Quarter
Sep 19
Full

Hourly Weather History & Observations

Time (EDT) Temp. Heat Index Dew Point Humidity Pressure Visibility Wind Dir Wind Speed Gust Speed Precip Events Conditions
12:51 AM 75.9 °F - 66.0 °F 71% 29.96 in 10.0 mi WSW 6.9 mph - N/A   Partly Cloudy
1:51 AM 75.9 °F - 66.0 °F 71% 29.95 in 10.0 mi WSW 9.2 mph - 0.00 in   Mostly Cloudy
2:51 AM 75.0 °F - 66.0 °F 73% 29.94 in 7.0 mi West 11.5 mph - 0.00 in Rain Light Rain
3:51 AM 73.0 °F - 66.9 °F 81% 29.92 in 10.0 mi WSW 6.9 mph - 0.06 in   Overcast
4:51 AM 72.0 °F - 66.9 °F 84% 29.91 in 10.0 mi WSW 5.8 mph - N/A   Mostly Cloudy
5:51 AM 72.0 °F - 66.0 °F 81% 29.92 in 10.0 mi West 4.6 mph - N/A   Clear
6:51 AM 71.1 °F - 66.9 °F 87% 29.93 in 10.0 mi West 5.8 mph - N/A   Scattered Clouds
7:51 AM 73.9 °F - 66.0 °F 76% 29.94 in 10.0 mi West 8.1 mph - N/A   Clear
8:51 AM 77.0 °F - 68.0 °F 74% 29.93 in 10.0 mi NW 6.9 mph - N/A   Clear
9:51 AM 81.0 °F 83.3 °F 66.9 °F 62% 29.93 in 10.0 mi NNW 9.2 mph - N/A   Clear
10:51 AM 82.0 °F 84.9 °F 68.0 °F 62% 29.93 in 10.0 mi NW 12.7 mph - N/A   Clear
11:51 AM 82.9 °F 85.4 °F 66.9 °F 58% 29.93 in 10.0 mi NNW 9.2 mph - N/A   Mostly Cloudy
12:51 PM 84.9 °F 88.2 °F 68.0 °F 57% 29.92 in 10.0 mi NW 8.1 mph - N/A   Mostly Cloudy
1:51 PM 87.1 °F 90.6 °F 68.0 °F 53% 29.91 in 10.0 mi NW 11.5 mph 16.1 mph N/A   Clear
2:51 PM 87.1 °F 89.2 °F 66.0 °F 49% 29.90 in 10.0 mi WNW 9.2 mph - N/A   Partly Cloudy
3:51 PM 88.0 °F 90.7 °F 66.9 °F 49% 29.88 in 10.0 mi Calm Calm - N/A   Scattered Clouds
4:51 PM 84.9 °F 87.6 °F 66.9 °F 55% 29.88 in 10.0 mi West 6.9 mph - N/A   Scattered Clouds
5:51 PM 82.9 °F 85.4 °F 66.9 °F 58% 29.89 in 10.0 mi WNW 8.1 mph - N/A   Clear
6:51 PM 82.0 °F 84.9 °F 68.0 °F 62% 29.88 in 10.0 mi NW 4.6 mph - N/A   Clear
7:51 PM 81.0 °F 83.3 °F 66.9 °F 62% 29.89 in 10.0 mi Calm Calm - N/A   Clear
8:51 PM 81.0 °F 83.8 °F 68.0 °F 65% 29.89 in 10.0 mi Calm Calm - N/A   Clear
9:51 PM 78.1 °F - 69.1 °F 74% 29.91 in 10.0 mi Calm Calm - N/A   Clear
10:51 PM 75.9 °F - 69.1 °F 79% 29.92 in 10.0 mi Calm Calm - N/A   Clear
11:51 PM 73.9 °F - 70.0 °F 87% 29.92 in 10.0 mi Calm Calm - N/A   Clear